Fort Leonard Wood, MO

10:31 PM CDT on August 23, 2017 (GMT -0500)
Waynesville Regional At Forney Field

Weather History for KTBN - September, 2013

Change the Weather History Date:

Thursday, September 26, 2013

  Actual Average Record
Temperature  
Mean Temperature 69 °F -  
Max Temperature 82 °F 74 °F 87 °F (1998)
Min Temperature 57 °F 53 °F 37 °F (2000)
Cooling Degree Days 4    
Growing Degree Days 19 (Base 50)    
Moisture  
Dew Point 62 °F    
Average Humidity 89    
Maximum Humidity 100    
Minimum Humidity 54    
Precipitation  
Precipitation 0.00 in - - ()
Sea Level Pressure  
Sea Level Pressure 29.95 in    
Wind  
Wind Speed 4 mph (SE)    
Max Wind Speed 12 mph    
Max Gust Speed -    
Visibility 6 miles    
Events Fog    
Averages and records for this station are not official NWS values.
T = Trace of Precipitation, MM = Missing Value Source: NWS Daily Summary

Daily Weather History Graph

Daily Weather History Graph

Search for Another Location

Airport or City:

Trip Planner

Search our weather history database for the weather conditions in past years. The results will help you decide how hot, cold, wet, or windy it might be!

Date:

Astronomy

Sep. 26, 2013 Rise Set
Actual Time 7:00 AM CDT 6:58 PM CDT
Civil Twilight 6:33 AM CDT 7:25 PM CDT
Nautical Twilight 6:03 AM CDT 7:55 PM CDT
Astronomical Twilight 5:32 AM CDT 8:26 PM CDT
Moon No Moon Rise 1:47 PM CDT (9/26)
Length of Visible Light 12h 51m
Length of Day
11h 58m
Waning Gibbous, 54% of the Moon is Illuminated
Sep 26
Waning Gibbous
Sep 26
Last Quarter
Oct 4
New
Oct 11
First Quarter
Oct 18
Full

Hourly Weather History & Observations

Time (CDT) Temp. Heat Index Dew Point Humidity Pressure Visibility Wind Dir Wind Speed Gust Speed Precip Events Conditions
12:58 AM 62.4 °F - 62.4 °F 100% 29.88 in 10.0 mi ESE 4.6 mph - N/A   Clear
1:58 AM 60.8 °F - 60.8 °F 100% 29.90 in 7.0 mi SE 2.3 mph - N/A   Clear
2:08 AM 60.8 °F - 60.8 °F 100% 29.91 in 1.8 mi South 1.2 mph - N/A   Clear
2:18 AM 60.8 °F - 60.8 °F 100% 29.91 in 3.0 mi SSE 2.3 mph - N/A   Clear
2:58 AM 60.8 °F - 60.8 °F 100% 29.90 in 5.0 mi ESE 2.3 mph - N/A   Clear
3:13 AM 60.8 °F - 60.8 °F 100% 29.91 in 1.8 mi ESE 3.5 mph - N/A   Clear
3:23 AM 60.8 °F - 60.8 °F 100% 29.91 in 6.0 mi SE 5.8 mph - N/A   Clear
3:58 AM 60.3 °F - 60.3 °F 100% 29.90 in 8.0 mi SE 2.3 mph - N/A   Clear
4:58 AM 59.0 °F - 59.0 °F 100% 29.92 in 3.0 mi Calm Calm - N/A   Clear
5:03 AM 59.0 °F - 59.0 °F 100% 29.93 in 2.5 mi SE 3.5 mph - N/A   Clear
5:13 AM 59.0 °F - 59.0 °F 100% 29.93 in 3.0 mi SE 2.3 mph - N/A   Clear
5:58 AM 58.6 °F - 58.6 °F 100% 29.93 in 7.0 mi SE 2.3 mph - N/A   Clear
6:28 AM 59.0 °F - 59.0 °F 100% 29.96 in 2.5 mi SE 3.5 mph - N/A   Clear
6:33 AM 59.0 °F - 59.0 °F 100% 29.96 in 3.0 mi SE 3.5 mph - N/A   Clear
6:58 AM 57.9 °F - 57.9 °F 100% 29.96 in 4.0 mi SSE 3.5 mph - N/A   Clear
7:03 AM 57.2 °F - 57.2 °F 100% 29.97 in 1.2 mi SSE 2.3 mph - N/A   Clear
7:08 AM 57.2 °F - 57.2 °F 100% 29.97 in 0.5 mi SE 3.5 mph - N/A Fog Fog
7:13 AM 57.2 °F - 57.2 °F 100% 29.97 in 0.2 mi SE 3.5 mph - N/A Fog Fog
7:38 AM 59.0 °F - 59.0 °F 100% 29.98 in 0.5 mi SE 2.3 mph - N/A Fog Fog
7:48 AM 59.0 °F - 59.0 °F 100% 29.98 in 1.2 mi SE 4.6 mph - N/A   Partly Cloudy
7:53 AM 59.0 °F - 59.0 °F 100% 29.98 in 2.5 mi ESE 5.8 mph - N/A   Clear
7:58 AM 60.3 °F - 60.3 °F 100% 29.97 in 4.0 mi ESE 5.8 mph - N/A   Clear
8:58 AM 63.9 °F - 63.9 °F 100% 29.99 in 10.0 mi ESE 5.8 mph - N/A   Clear
9:58 AM 70.3 °F - 65.1 °F 83% 30.00 in 10.0 mi SE 8.1 mph - N/A   Clear
10:58 AM 75.4 °F - 66.2 °F 73% 30.00 in 10.0 mi SE 11.5 mph - N/A   Partly Cloudy
11:58 AM 77.4 °F - 65.8 °F 67% 30.00 in 10.0 mi SE 11.5 mph - N/A   Partly Cloudy
12:58 PM 79.3 °F - 65.5 °F 62% 29.99 in 10.0 mi SSE 10.4 mph - N/A   Scattered Clouds
1:58 PM 80.6 °F 82.4 °F 65.1 °F 59% 29.96 in 10.0 mi South 6.9 mph - N/A   Scattered Clouds
2:58 PM 81.5 °F 82.8 °F 63.5 °F 54% 29.96 in 10.0 mi South 8.1 mph - N/A   Partly Cloudy
3:58 PM 81.1 °F 82.7 °F 64.2 °F 56% 29.94 in 10.0 mi Variable 5.8 mph - N/A   Partly Cloudy
4:58 PM 81.1 °F 82.7 °F 64.2 °F 56% 29.95 in 10.0 mi SSE 8.1 mph - N/A   Clear
5:58 PM 80.6 °F 82.3 °F 64.8 °F 58% 29.96 in 10.0 mi SSE 8.1 mph - N/A   Clear
6:58 PM 76.1 °F - 66.0 °F 71% 29.95 in 10.0 mi SE 6.9 mph - N/A   Clear
7:58 PM 73.0 °F - 65.5 °F 77% 29.96 in 10.0 mi SE 6.9 mph - N/A   Clear
8:58 PM 68.5 °F - 65.3 °F 89% 29.97 in 10.0 mi SSE 5.8 mph - N/A   Clear
9:58 PM 67.5 °F - 64.9 °F 92% 29.98 in 10.0 mi SSE 6.9 mph - N/A   Clear
10:58 PM 65.5 °F - 64.9 °F 98% 29.99 in 10.0 mi SE 6.9 mph - N/A   Clear
11:58 PM 64.2 °F - 64.2 °F 100% 29.99 in 10.0 mi SE 6.9 mph - N/A   Clear